Location: Niles Junction
(37.5763°N, 121.9714°W)
Time: 12:55:03
(UTC+00:00)

Cosmos 1703 - Pass Details

Date: 29 October 2020
Orbit: 525 x 538 km, 82.5° (Epoch: 01 December)

Event Time Altitude Azimuth Distance (km) Brightness Sun altitude
Rises 13:45:29 0° 181° (S) 2,642 6.9 -9.5°
Reaches altitude 10° 13:47:37 10° 179° (S) 1,759 6.1 -9.1°
Maximum altitude 13:51:27 70° 95° (E) 562 3.6 -8.3°
Drops below altitude 10° 13:55:20 10° 12° (NNE) 1,778 5.9 -7.6°
Sets 13:57:30 0° 10° (N) 2,675 6.8 -7.2°
